ラーソン彗星

250P/Larson (2003)

English version
Home page
Updated on March 27, 2011

---------------------------------------------------------------------

・ プロフィール

・ 軌道要素

Epoch 2003 Aug. 29.0 TT = JDT 2452880.5
T 2003 Aug. 30.21020 TT                                 MPC
q   2.2301201            (2000.0)            P               Q
n   0.13616567     Peri.   44.99651     -0.46490014     -0.85740677
a   3.7418896      Node    73.88971     +0.73389555     -0.51265227
e   0.4040123      Incl.   13.28247     +0.49524255     -0.04518050
P   7.24
From 214 observations 1995 Dec. 22-2011 Mar. 12, mean residual 0".57.

・ 光度変化

        m1 = 12.3 + 5 logΔ + 15 log r

---------------------------------------------------------------------

軌道要素はM.P.E.C. 2011-F21に掲載されたものです。
光度グラフはComet for Windowsで作成したものです。

---------------------------------------------------------------------

Copyright(C) Seiichi Yoshida (comet@aerith.net). All rights reserved.